This is the latest recevied weather packets stored in our database for station/object WD7CGF. If no packets are shown the sender has not sent any weather packets the latest 10 day(s).
| Time | Temp. | Humidity | Pressure | Rain* | Wind** | Luminosity | Snow |
|---|---|---|---|---|---|---|---|
| 1787748513 | 12.78° C | 81% | 1013.7 hPa | 0 mm | - | - | - |
| 1787747926 | 13.33° C | 81% | 1013.6 hPa | 0 mm | - | - | - |
| 1787747326 | 13.33° C | 81% | 1013.5 hPa | 0 mm | - | - | - |
| 1787746719 | 13.89° C | 80% | 1013.5 hPa | 0 mm | - | - | - |
| 1787746112 | 13.89° C | 79% | 1013.4 hPa | 0 mm | - | - | - |
| 1787745528 | 13.89° C | 78% | 1013.3 hPa | 0 mm | - | - | - |
| 1787744919 | 13.89° C | 78% | 1013.3 hPa | 0 mm | - | - | - |
| 1787744314 | 13.89° C | 77% | 1013.5 hPa | 0 mm | - | - | - |
| 1787743727 | 14.44° C | 76% | 1013.5 hPa | 0 mm | - | - | - |
| 1787743121 | 14.44° C | 76% | 1013.5 hPa | 0 mm | - | - | - |
| 1787742515 | 15° C | 75% | 1014.4 hPa | 0 mm | - | - | - |
| 1787741930 | 15.56° C | 73% | 1014.3 hPa | 0 mm | - | - | - |
| 1787741323 | 15.56° C | 72% | 1014.3 hPa | 0 mm | - | - | - |
| 1787740717 | 15.56° C | 72% | 1014.3 hPa | 0 mm | - | - | - |
| 1787740131 | 15.56° C | 72% | 1014.3 hPa | 0 mm | - | - | - |
| 1787739528 | 15.56° C | 74% | 1014.3 hPa | 0 mm | - | - | - |
| 1787738920 | 16.11° C | 78% | 1014.3 hPa | 0 mm | - | - | - |
| 1787738318 | 16.11° C | 77% | 1014.2 hPa | 0 mm | - | - | - |
| 1787737730 | 16.67° C | 77% | 1014.2 hPa | 0 mm | - | - | - |
| 1787737123 | 16.67° C | 76% | 1014.1 hPa | 0 mm | - | - | - |
| 1787736517 | 17.22° C | 76% | 1014 hPa | 0 mm | - | - | - |
| 1787735930 | 17.22° C | 76% | 1014 hPa | 0 mm | - | - | - |
| 1787735324 | 17.22° C | 75% | 1014.2 hPa | 0 mm | - | - | - |
| 1787734717 | 17.22° C | 75% | 1014.3 hPa | 0 mm | - | - | - |
| 1787734112 | 17.22° C | 76% | 1014.3 hPa | 0 mm | - | - | - |
* Rain latest hour (hover to see other rain measurements)
** Current wind speed in m/s (hover to see current wind gust speed)